Location: Champignolles
(47.0543°N, 4.5663°E)
Time: 16:31:42
(UTC+00:00)

CSL-04 DEB - Pass Details

Date: 30 November 2020
Orbit: 545 x 627 km, 98.8° (Epoch: 28 January)

Event Time Altitude Azimuth Distance (km) Brightness Sun altitude
Exits shadow 17:01:08 - 18° (NNE) 2,560 7.4 -11.0°
Reaches altitude 10° 17:02:42 10° 20° (NNE) 1,918 6.7 -11.2°
Maximum altitude 17:06:50 65° 102° (ESE) 659 4.5 -11.9°
Drops below altitude 10° 17:11:03 10° 186° (S) 1,951 7.4 -12.6°
Sets 17:13:15 0° 189° (S) 2,862 8.4 -12.9°
